| time (UTC) | temp F | wind direction | speed MPH | gust MPH | rain 1hr in | rain 24hr in | rain mn in | humidity % | barometer mb |
| 20260831132404 | 78 | 274 | 2.0 | 6.0 | 0.00 | 0.00 | 0.00 | 61 | 1012.7 |
| 20260831131904 | 78 | 271 | 1.0 | 6.0 | 0.00 | 0.00 | 0.00 | 63 | 1012.7 |
| 20260831131404 | 77 | 258 | 3.0 | 5.0 | 0.00 | 0.00 | 0.00 | 65 | 1012.8 |
| 20260831130905 | 77 | 286 | 1.0 | 3.0 | 0.00 | 0.00 | 0.00 | 64 | 1012.8 |
| 20260831130405 | 78 | 289 | 5.0 | 7.0 | 0.00 | 0.00 | 0.00 | 61 | 1012.9 |
| 20260831125904 | 78 | 285 | 4.0 | 7.0 | 0.00 | 0.00 | 0.00 | 61 | 1013.0 |
| 20260831125404 | 78 | 269 | 2.0 | 5.0 | 0.00 | 0.00 | 0.00 | 60 | 1012.9 |
| 20260831124904 | 78 | 231 | 2.0 | 7.0 | 0.00 | 0.00 | 0.00 | 60 | 1013.0 |
| 20260831124404 | 78 | 275 | 3.0 | 8.0 | 0.00 | 0.00 | 0.00 | 60 | 1013.0 |
| 20260831123904 | 78 | 237 | 2.0 | 10.0 | 0.00 | 0.00 | 0.00 | 60 | 1013.1 |
| 20260831123404 | 78 | 241 | 5.0 | 12.0 | 0.00 | 0.00 | 0.00 | 59 | 1013.1 |
| 20260831122904 | 79 | 226 | 5.0 | 8.0 | 0.00 | 0.00 | 0.00 | 58 | 1013.1 |
| 20260831122404 | 79 | 239 | 8.0 | 12.0 | 0.00 | 0.00 | 0.00 | 58 | 1013.0 |
| 20260831120904 | 79 | 229 | 5.0 | 10.0 | 0.00 | 0.00 | 0.00 | 60 | 1013.0 |
| 20260831120404 | 78 | 244 | 5.0 | 12.0 | 0.00 | 0.00 | 0.00 | 59 | 1013.0 |
| 20260831115904 | 79 | 235 | 6.0 | 12.0 | 0.00 | 0.00 | 0.00 | 59 | 1013.0 |
| 20260831115404 | 79 | 254 | 5.0 | 10.0 | 0.00 | 0.00 | 0.00 | 59 | 1013.0 |
| 20260831114404 | 79 | 243 | 5.0 | 10.0 | 0.00 | 0.00 | 0.00 | 60 | 1012.8 |
| 20260831113904 | 79 | 222 | 5.0 | 9.0 | 0.00 | 0.00 | 0.00 | 59 | 1012.8 |
| 20260831113404 | 79 | 228 | 5.0 | 9.0 | 0.00 | 0.00 | 0.00 | 59 | 1012.9 |
| 20260831112904 | 80 | 238 | 6.0 | 12.0 | 0.00 | 0.00 | 0.00 | 58 | 1012.9 |
| 20260831112404 | 80 | 218 | 6.0 | 12.0 | 0.00 | 0.00 | 0.00 | 57 | 1012.8 |
| 20260831111904 | 80 | 208 | 6.0 | 12.0 | 0.00 | 0.00 | 0.00 | 58 | 1012.8 |
| 20260831111404 | 81 | 214 | 6.0 | 12.0 | 0.00 | 0.00 | 0.00 | 57 | 1012.8 |
| 20260831110904 | 81 | 233 | 9.0 | 15.0 | 0.00 | 0.00 | 0.00 | 58 | 1012.7 |
| 20260831110404 | 81 | 220 | 9.0 | 20.0 | 0.00 | 0.00 | 0.00 | 58 | 1012.6 |
| 20260831105904 | 81 | 222 | 9.0 | 16.0 | 0.00 | 0.00 | 0.00 | 58 | 1012.5 |
| 20260831105404 | 81 | 242 | 6.0 | 13.0 | 0.00 | 0.00 | 0.00 | 58 | 1012.4 |
| 20260831104904 | 80 | 215 | 6.0 | 12.0 | 0.00 | 0.00 | 0.00 | 60 | 1012.4 |
| 20260831104404 | 80 | 235 | 6.0 | 13.0 | 0.00 | 0.00 | 0.00 | 60 | 1012.5 |
| 20260831103404 | 79 | 227 | 4.0 | 10.0 | 0.00 | 0.00 | 0.00 | 62 | 1012.5 |
| 20260831102904 | 79 | 243 | 6.0 | 12.0 | 0.00 | 0.00 | 0.00 | 65 | 1012.6 |
| 20260831101904 | 78 | 229 | 3.0 | 8.0 | 0.00 | 0.00 | 0.00 | 65 | 1012.5 |
| 20260831101404 | 78 | 240 | 2.0 | 5.0 | 0.00 | 0.00 | 0.00 | 65 | 1012.5 |
| 20260831100404 | 77 | 242 | 1.0 | 3.0 | 0.00 | 0.00 | 0.00 | 65 | 1012.4 |
| 20260831095904 | 77 | 218 | 1.0 | 2.0 | 0.00 | 0.00 | 0.00 | 65 | 1012.4 |
| 20260831095404 | 77 | 218 | 1.0 | 3.0 | 0.00 | 0.00 | 0.00 | 65 | 1012.3 |
| 20260831094404 | 77 | 218 | 2.0 | 6.0 | 0.00 | 0.00 | 0.00 | 65 | 1012.4 |
| 20260831093904 | 77 | 215 | 3.0 | 3.0 | 0.00 | 0.00 | 0.00 | 64 | 1012.5 |
| 20260831093404 | 77 | 215 | 3.0 | 5.0 | 0.00 | 0.00 | 0.00 | 65 | 1012.4 |
| 20260831092904 | 77 | 207 | 1.0 | 3.0 | 0.00 | 0.00 | 0.00 | 63 | 1012.2 |
| 20260831092405 | 77 | 208 | 2.0 | 5.0 | 0.00 | 0.00 | 0.00 | 65 | 1012.3 |
| 20260831091904 | 78 | 213 | 5.0 | 7.0 | 0.00 | 0.00 | 0.00 | 65 | 1012.4 |
| 20260831090405 | 78 | 243 | 2.0 | 5.0 | 0.00 | 0.00 | 0.00 | 65 | 1012.5 |
| 20260831085904 | 78 | 245 | 2.0 | 5.0 | 0.00 | 0.00 | 0.00 | 66 | 1012.5 |
| 20260831085404 | 78 | 242 | 1.0 | 3.0 | 0.00 | 0.00 | 0.00 | 65 | 1012.4 |
| 20260831084904 | 78 | 253 | 1.0 | 3.0 | 0.00 | 0.00 | 0.00 | 65 | 1012.3 |
| 20260831084404 | 77 | 50 | 0.0 | 1.0 | 0.00 | 0.00 | 0.00 | 65 | 1012.3 |
| 20260831083904 | 77 | 50 | 0.0 | 1.0 | 0.00 | 0.00 | 0.00 | 64 | 1012.1 |
| 20260831083405 | 77 | 50 | 1.0 | 3.0 | 0.00 | 0.00 | 0.00 | 65 | 1012.0 |
| 20260831082904 | 76 | 50 | 1.0 | 3.0 | 0.00 | 0.00 | 0.00 | 68 | 1012.0 |
| 20260831082404 | 76 | 50 | 0.0 | 0.0 | 0.00 | 0.00 | 0.00 | 69 | 1012.0 |
| 20260831081905 | 76 | 50 | 0.0 | 2.0 | 0.00 | 0.00 | 0.00 | 66 | 1012.0 |
| 20260831081404 | 75 | 50 | 1.0 | 3.0 | 0.00 | 0.00 | 0.00 | 67 | 1012.0 |
| 20260831080904 | 75 | 49 | 1.0 | 3.0 | 0.00 | 0.00 | 0.00 | 67 | 1012.0 |
| 20260831080404 | 75 | 49 | 1.0 | 2.0 | 0.00 | 0.00 | 0.00 | 69 | 1012.0 |
| 20260831075904 | 74 | 53 | 0.0 | 2.0 | 0.00 | 0.00 | 0.00 | 71 | 1012.0 |
| 20260831075404 | 74 | 63 | 1.0 | 2.0 | 0.00 | 0.00 | 0.00 | 71 | 1012.1 |
| 20260831074904 | 73 | 63 | 0.0 | 2.0 | 0.00 | 0.00 | 0.00 | 73 | 1012.1 |
| 20260831074404 | 73 | 63 | 0.0 | 2.0 | 0.00 | 0.00 | 0.00 | 76 | 1012.1 |
| 20260831073904 | 73 | 63 | 0.0 | 1.0 | 0.00 | 0.00 | 0.00 | 75 | 1012.1 |
| 20260831073404 | 72 | 63 | 0.0 | 0.0 | 0.00 | 0.00 | 0.00 | 75 | 1012.2 |
| 20260831072904 | 72 | 63 | 0.0 | 0.0 | 0.00 | 0.00 | 0.00 | 72 | 1012.1 |
| 20260831072404 | 72 | 63 | 0.0 | 2.0 | 0.00 | 0.00 | 0.00 | 72 | 1012.1 |
| 20260831071904 | 71 | 63 | 0.0 | 2.0 | 0.00 | 0.00 | 0.00 | 74 | 1012.1 |
| 20260831071404 | 71 | 63 | 0.0 | 1.0 | 0.00 | 0.00 | 0.00 | 74 | 1012.0 |
| 20260831070404 | 70 | 59 | 0.0 | 2.0 | 0.00 | 0.00 | 0.00 | 77 | 1012.1 |
| 20260831065405 | 68 | 47 | 0.0 | 3.0 | 0.00 | 0.00 | 0.00 | 78 | 1012.2 |
| 20260831064904 | 67 | 63 | 1.0 | 5.0 | 0.00 | 0.00 | 0.00 | 82 | 1012.2 |
| 20260831064404 | 67 | 43 | 2.0 | 3.0 | 0.00 | 0.00 | 0.00 | 85 | 1012.2 |
| 20260831063904 | 66 | 54 | 2.0 | 3.0 | 0.00 | 0.00 | 0.00 | 85 | 1012.3 |
| 20260831063404 | 65 | 54 | 1.0 | 3.0 | 0.00 | 0.00 | 0.00 | 85 | 1012.4 |
| 20260831062904 | 65 | 54 | 0.0 | 1.0 | 0.00 | 0.00 | 0.00 | 86 | 1012.5 |
| 20260831062405 | 65 | 54 | 0.0 | 3.0 | 0.00 | 0.00 | 0.00 | 86 | 1012.5 |
| 20260831061904 | 65 | 54 | 1.0 | 3.0 | 0.00 | 0.00 | 0.00 | 87 | 1012.5 |
| 20260831061405 | 64 | 54 | 2.0 | 3.0 | 0.00 | 0.00 | 0.00 | 87 | 1012.5 |
| 20260831060904 | 64 | 54 | 0.0 | 2.0 | 0.00 | 0.00 | 0.00 | 87 | 1012.6 |
| 20260831060404 | 64 | 54 | 0.0 | 0.0 | 0.00 | 0.00 | 0.00 | 87 | 1012.6 |
| 20260831055904 | 64 | 54 | 0.0 | 0.0 | 0.00 | 0.00 | 0.00 | 88 | 1012.7 |
| 20260831055404 | 64 | 54 | 0.0 | 0.0 | 0.00 | 0.00 | 0.00 | 88 | 1012.7 |
| 20260831054904 | 64 | 54 | 0.0 | 0.0 | 0.00 | 0.00 | 0.00 | 89 | 1012.6 |
| 20260831053905 | 63 | 54 | 0.0 | 0.0 | 0.00 | 0.00 | 0.00 | 89 | 1012.5 |
| 20260831053404 | 63 | 54 | 0.0 | 0.0 | 0.00 | 0.00 | 0.00 | 89 | 1012.5 |
| 20260831052904 | 63 | 54 | 0.0 | 0.0 | 0.00 | 0.00 | 0.00 | 88 | 1012.5 |
| 20260831052404 | 62 | 54 | 0.0 | 0.0 | 0.00 | 0.00 | 0.00 | 88 | 1012.5 |
| 20260831051904 | 62 | 54 | 0.0 | 0.0 | 0.00 | 0.00 | 0.00 | 89 | 1012.5 |
| 20260831051405 | 62 | 54 | 0.0 | 0.0 | 0.00 | 0.00 | 0.00 | 88 | 1012.5 |
| 20260831050904 | 62 | 54 | 0.0 | 0.0 | 0.00 | 0.00 | 0.00 | 88 | 1012.5 |
| 20260831050404 | 62 | 54 | 0.0 | 0.0 | 0.00 | 0.00 | 0.00 | 88 | 1012.5 |
| 20260831045904 | 62 | 54 | 0.0 | 0.0 | 0.00 | 0.00 | 0.00 | 87 | 1012.5 |
| 20260831045404 | 62 | 54 | 0.0 | 0.0 | 0.00 | 0.00 | 0.00 | 87 | 1012.5 |
| 20260831044404 | 61 | 54 | 0.0 | 0.0 | 0.00 | 0.00 | 0.00 | 87 | 1012.4 |
| 20260831043904 | 61 | 54 | 0.0 | 0.0 | 0.00 | 0.00 | 0.00 | 87 | 1012.4 |
| 20260831043404 | 61 | 54 | 0.0 | 0.0 | 0.00 | 0.00 | 0.00 | 87 | 1012.5 |
| 20260831042905 | 61 | 54 | 0.0 | 0.0 | 0.00 | 0.00 | 0.00 | 87 | 1012.5 |
| 20260831042404 | 61 | 54 | 0.0 | 0.0 | 0.00 | 0.00 | 0.00 | 87 | 1012.3 |
| 20260831041904 | 61 | 54 | 0.0 | 0.0 | 0.00 | 0.00 | 0.00 | 87 | 1012.3 |
| 20260831040905 | 61 | 54 | 2.0 | 3.0 | 0.00 | 0.00 | 0.00 | 87 | 1012.3 |
| 20260831040405 | 61 | 54 | 2.0 | 5.0 | 0.00 | 0.00 | 0.00 | 87 | 1012.3 |
| 20260831035904 | 61 | 43 | 2.0 | 5.0 | 0.00 | 0.00 | 0.00 | 87 | 1012.3 |
| 20260831035404 | 61 | 42 | 1.0 | 2.0 | 0.00 | 0.00 | 0.00 | 87 | 1012.4 |
| 20260831034904 | 61 | 42 | 0.0 | 0.0 | 0.00 | 0.00 | 0.00 | 87 | 1012.4 |
| 20260831033404 | 62 | 42 | 0.0 | 1.0 | 0.00 | 0.00 | 0.00 | 87 | 1012.5 |
| 20260831032904 | 62 | 42 | 1.0 | 2.0 | 0.00 | 0.00 | 0.00 | 87 | 1012.4 |
| 20260831032404 | 62 | 42 | 0.0 | 2.0 | 0.00 | 0.00 | 0.00 | 87 | 1012.5 |
| 20260831031904 | 62 | 42 | 0.0 | 0.0 | 0.00 | 0.00 | 0.00 | 87 | 1012.5 |
| 20260831031404 | 62 | 42 | 0.0 | 0.0 | 0.00 | 0.00 | 0.00 | 87 | 1012.5 |
| 20260831030905 | 62 | 42 | 0.0 | 2.0 | 0.00 | 0.00 | 0.00 | 87 | 1012.5 |
| 20260831030404 | 61 | 42 | 1.0 | 3.0 | 0.00 | 0.00 | 0.00 | 87 | 1012.4 |
| 20260831025904 | 61 | 42 | 0.0 | 0.0 | 0.00 | 0.00 | 0.00 | 87 | 1012.6 |
| 20260831025405 | 61 | 42 | 0.0 | 1.0 | 0.00 | 0.00 | 0.00 | 86 | 1012.6 |
| 20260831024904 | 61 | 42 | 0.0 | 1.0 | 0.00 | 0.00 | 0.00 | 86 | 1012.7 |
| 20260831023904 | 61 | 42 | 0.0 | 0.0 | 0.00 | 0.00 | 0.00 | 86 | 1012.7 |
| 20260831023404 | 61 | 42 | 0.0 | 2.0 | 0.00 | 0.00 | 0.00 | 86 | 1012.7 |
| 20260831022904 | 61 | 42 | 1.0 | 3.0 | 0.00 | 0.00 | 0.00 | 86 | 1012.7 |
| 20260831022404 | 61 | 42 | 1.0 | 2.0 | 0.00 | 0.00 | 0.00 | 86 | 1012.7 |
| 20260831021904 | 61 | 42 | 1.0 | 3.0 | 0.00 | 0.00 | 0.00 | 86 | 1012.7 |
| 20260831021404 | 61 | 42 | 2.0 | 3.0 | 0.00 | 0.00 | 0.00 | 86 | 1012.7 |
| 20260831020404 | 61 | 38 | 2.0 | 3.0 | 0.00 | 0.00 | 0.00 | 86 | 1012.8 |
| 20260831015904 | 62 | 38 | 1.0 | 3.0 | 0.00 | 0.00 | 0.00 | 86 | 1012.8 |
| 20260831015404 | 62 | 38 | 1.0 | 3.0 | 0.00 | 0.00 | 0.00 | 86 | 1012.8 |
| 20260831014905 | 62 | 38 | 1.0 | 3.0 | 0.00 | 0.00 | 0.00 | 86 | 1012.8 |
| 20260831014404 | 62 | 38 | 2.0 | 3.0 | 0.00 | 0.00 | 0.00 | 86 | 1012.8 |
| 20260831013904 | 62 | 34 | 1.0 | 3.0 | 0.00 | 0.00 | 0.00 | 86 | 1012.8 |
| 20260831013404 | 62 | 34 | 0.0 | 1.0 | 0.00 | 0.00 | 0.00 | 86 | 1012.9 |
| 20260831012905 | 62 | 34 | 0.0 | 0.0 | 0.00 | 0.00 | 0.00 | 86 | 1013.1 |
| 20260831012404 | 62 | 34 | 0.0 | 0.0 | 0.00 | 0.00 | 0.00 | 86 | 1013.1 |
| 20260831011904 | 62 | 34 | 0.0 | 3.0 | 0.00 | 0.00 | 0.00 | 86 | 1013.1 |
| 20260831011404 | 62 | 34 | 1.0 | 2.0 | 0.00 | 0.00 | 0.00 | 86 | 1013.0 |
| 20260831010904 | 62 | 34 | 0.0 | 1.0 | 0.00 | 0.00 | 0.00 | 85 | 1013.0 |
| 20260831010404 | 62 | 34 | 0.0 | 0.0 | 0.00 | 0.00 | 0.00 | 85 | 1013.2 |
| 20260831005904 | 62 | 34 | 0.0 | 0.0 | 0.00 | 0.00 | 0.00 | 85 | 1013.2 |
| 20260831004404 | 62 | 34 | 0.0 | 0.0 | 0.00 | 0.01 | 0.00 | 84 | 1013.3 |
| 20260831003904 | 63 | 34 | 0.0 | 0.0 | 0.00 | 0.01 | 0.00 | 84 | 1013.3 |
| 20260831003404 | 63 | 34 | 0.0 | 3.0 | 0.00 | 0.01 | 0.00 | 84 | 1013.4 |
| 20260831002904 | 63 | 34 | 1.0 | 2.0 | 0.00 | 0.01 | 0.00 | 84 | 1013.4 |
| 20260831002404 | 63 | 34 | 1.0 | 3.0 | 0.00 | 0.01 | 0.00 | 84 | 1013.4 |
| 20260831001904 | 63 | 34 | 2.0 | 3.0 | 0.00 | 0.01 | 0.00 | 84 | 1013.4 |
| 20260831001405 | 63 | 34 | 2.0 | 3.0 | 0.00 | 0.01 | 0.00 | 84 | 1013.3 |
| 20260831000404 | 63 | 34 | 1.0 | 2.0 | 0.00 | 0.01 | 0.00 | 83 | 1013.5 |
| 20260830235904 | 63 | 34 | 0.0 | 0.0 | 0.00 | 0.01 | 0.00 | 83 | 1013.5 |
| 20260830235404 | 64 | 34 | 0.0 | 0.0 | 0.00 | 0.01 | 0.00 | 83 | 1013.5 |
| 20260830234904 | 64 | 34 | 0.0 | 1.0 | 0.00 | 0.01 | 0.00 | 83 | 1013.5 |
| 20260830234405 | 64 | 34 | 0.0 | 0.0 | 0.00 | 0.01 | 0.00 | 83 | 1013.5 |
| 20260830233904 | 64 | 34 | 0.0 | 0.0 | 0.00 | 0.01 | 0.00 | 83 | 1013.5 |
| 20260830233405 | 64 | 34 | 0.0 | 0.0 | 0.00 | 0.01 | 0.00 | 83 | 1013.5 |
| 20260830232904 | 64 | 34 | 0.0 | 0.0 | 0.00 | 0.01 | 0.00 | 83 | 1013.5 |
| 20260830232405 | 64 | 34 | 1.0 | 14.0 | 0.00 | 0.01 | 0.00 | 83 | 1013.5 |
| 20260830231904 | 64 | 34 | 1.0 | 2.0 | 0.00 | 0.01 | 0.00 | 83 | 1013.5 |
| 20260830231404 | 64 | 34 | 1.0 | 2.0 | 0.00 | 0.01 | 0.00 | 83 | 1013.5 |
| 20260830230905 | 64 | 34 | 0.0 | 2.0 | 0.00 | 0.01 | 0.00 | 83 | 1013.5 |
| 20260830225904 | 65 | 34 | 1.0 | 2.0 | 0.00 | 0.01 | 0.00 | 82 | 1013.5 |
| 20260830225404 | 65 | 34 | 1.0 | 2.0 | 0.00 | 0.01 | 0.00 | 82 | 1013.5 |
| 20260830223904 | 65 | 34 | 0.0 | 1.0 | 0.00 | 0.01 | 0.00 | 81 | 1013.6 |
| 20260830222904 | 65 | 34 | 0.0 | 0.0 | 0.00 | 0.01 | 0.00 | 80 | 1013.6 |
| 20260830222404 | 65 | 34 | 0.0 | 0.0 | 0.00 | 0.01 | 0.00 | 80 | 1013.6 |
| 20260830221904 | 66 | 34 | 0.0 | 0.0 | 0.00 | 0.01 | 0.00 | 79 | 1013.6 |
| 20260830221404 | 66 | 34 | 0.0 | 0.0 | 0.00 | 0.01 | 0.00 | 79 | 1013.5 |
| 20260830220904 | 66 | 34 | 0.0 | 1.0 | 0.00 | 0.01 | 0.00 | 79 | 1013.6 |
| 20260830215905 | 66 | 34 | 1.0 | 2.0 | 0.00 | 0.01 | 0.01 | 78 | 1013.5 |
| 20260830215404 | 66 | 34 | 0.0 | 0.0 | 0.00 | 0.01 | 0.01 | 78 | 1013.5 |
| 20260830214906 | 66 | 34 | 1.0 | 2.0 | 0.00 | 0.01 | 0.01 | 78 | 1013.3 |
| 20260830214404 | 66 | 34 | 0.0 | 0.0 | 0.00 | 0.01 | 0.01 | 78 | 1013.3 |
| 20260830213405 | 67 | 34 | 1.0 | 2.0 | 0.00 | 0.01 | 0.01 | 78 | 1013.3 |
| 20260830212404 | 67 | 34 | 0.0 | 2.0 | 0.00 | 0.01 | 0.01 | 77 | 1013.3 |
| 20260830211904 | 67 | 34 | 0.0 | 2.0 | 0.00 | 0.01 | 0.01 | 76 | 1013.4 |
| 20260830211404 | 67 | 34 | 1.0 | 2.0 | 0.00 | 0.01 | 0.01 | 76 | 1013.3 |
| 20260830210904 | 67 | 34 | 1.0 | 3.0 | 0.00 | 0.01 | 0.01 | 76 | 1013.2 |
| 20260830210405 | 67 | 34 | 2.0 | 3.0 | 0.00 | 0.01 | 0.01 | 76 | 1013.2 |
| 20260830205904 | 67 | 34 | 2.0 | 3.0 | 0.00 | 0.01 | 0.01 | 75 | 1013.2 |
| 20260830205405 | 68 | 51 | 2.0 | 3.0 | 0.00 | 0.01 | 0.01 | 75 | 1013.2 |
| 20260830204904 | 68 | 60 | 3.0 | 3.0 | 0.00 | 0.01 | 0.01 | 76 | 1013.1 |
| 20260830204404 | 68 | 61 | 1.0 | 3.0 | 0.00 | 0.01 | 0.01 | 75 | 1013.2 |
| 20260830203904 | 68 | 61 | 1.0 | 3.0 | 0.00 | 0.01 | 0.01 | 74 | 1013.2 |
| 20260830203404 | 69 | 61 | 0.0 | 2.0 | 0.00 | 0.01 | 0.01 | 74 | 1013.1 |
| 20260830202904 | 69 | 61 | 0.0 | 0.0 | 0.00 | 0.01 | 0.01 | 73 | 1013.2 |
| 20260830202405 | 69 | 61 | 0.0 | 0.0 | 0.00 | 0.01 | 0.01 | 73 | 1013.2 |
| 20260830201904 | 69 | 61 | 0.0 | 0.0 | 0.00 | 0.01 | 0.01 | 73 | 1013.2 |
| 20260830200904 | 69 | 61 | 1.0 | 3.0 | 0.00 | 0.01 | 0.01 | 71 | 1013.1 |
| 20260830200404 | 69 | 61 | 1.0 | 3.0 | 0.00 | 0.01 | 0.01 | 70 | 1013.1 |
| 20260830195404 | 69 | 60 | 2.0 | 3.0 | 0.00 | 0.01 | 0.01 | 69 | 1013.0 |
| 20260830194905 | 70 | 63 | 2.0 | 3.0 | 0.00 | 0.01 | 0.01 | 70 | 1013.0 |
| 20260830194405 | 70 | 69 | 2.0 | 3.0 | 0.00 | 0.01 | 0.01 | 69 | 1013.0 |
| 20260830193905 | 70 | 69 | 1.0 | 3.0 | 0.00 | 0.01 | 0.01 | 69 | 1013.0 |
| 20260830193404 | 70 | 69 | 1.0 | 2.0 | 0.00 | 0.01 | 0.01 | 69 | 1013.0 |
| 20260830192404 | 70 | 69 | 2.0 | 3.0 | 0.00 | 0.01 | 0.01 | 69 | 1012.9 |
| 20260830191904 | 71 | 69 | 1.0 | 3.0 | 0.00 | 0.01 | 0.01 | 69 | 1013.0 |
| 20260830191404 | 71 | 69 | 1.0 | 3.0 | 0.00 | 0.01 | 0.01 | 69 | 1012.9 |
| 20260830190404 | 71 | 69 | 2.0 | 3.0 | 0.00 | 0.01 | 0.01 | 68 | 1013.0 |
| 20260830185904 | 72 | 69 | 1.0 | 3.0 | 0.00 | 0.01 | 0.01 | 67 | 1013.0 |
| 20260830185404 | 72 | 69 | 2.0 | 3.0 | 0.00 | 0.01 | 0.01 | 67 | 1012.9 |
| 20260830184404 | 72 | 69 | 1.0 | 3.0 | 0.00 | 0.01 | 0.01 | 65 | 1012.8 |
| 20260830183905 | 73 | 69 | 0.0 | 3.0 | 0.00 | 0.01 | 0.01 | 64 | 1012.8 |
| 20260830183404 | 73 | 73 | 2.0 | 3.0 | 0.00 | 0.01 | 0.01 | 63 | 1012.8 |
| 20260830182404 | 74 | 125 | 1.0 | 2.0 | 0.00 | 0.01 | 0.01 | 63 | 1012.7 |
| 20260830181905 | 74 | 125 | 0.0 | 2.0 | 0.00 | 0.01 | 0.01 | 62 | 1012.6 |
| 20260830181404 | 75 | 125 | 1.0 | 2.0 | 0.00 | 0.01 | 0.01 | 61 | 1012.6 |
| 20260830180904 | 75 | 125 | 0.0 | 1.0 | 0.00 | 0.01 | 0.01 | 61 | 1012.5 |
| 20260830175405 | 77 | 125 | 0.0 | 1.0 | 0.00 | 0.01 | 0.01 | 59 | 1012.4 |
| 20260830174904 | 77 | 125 | 0.0 | 1.0 | 0.00 | 0.01 | 0.01 | 58 | 1012.4 |
| 20260830174405 | 78 | 125 | 0.0 | 0.0 | 0.00 | 0.01 | 0.01 | 57 | 1012.3 |
| 20260830173904 | 79 | 125 | 0.0 | 1.0 | 0.00 | 0.01 | 0.01 | 55 | 1012.3 |
| 20260830173405 | 79 | 125 | 0.0 | 2.0 | 0.00 | 0.01 | 0.01 | 54 | 1012.3 |
| 20260830171904 | 81 | 125 | 0.0 | 2.0 | 0.00 | 0.01 | 0.01 | 52 | 1012.2 |
| 20260830171404 | 81 | 125 | 0.0 | 1.0 | 0.00 | 0.01 | 0.01 | 51 | 1012.2 |
| 20260830170904 | 81 | 125 | 1.0 | 3.0 | 0.00 | 0.01 | 0.01 | 49 | 1012.1 |
| 20260830170404 | 82 | 125 | 0.0 | 1.0 | 0.00 | 0.01 | 0.01 | 49 | 1012.1 |
| 20260830165905 | 82 | 125 | 0.0 | 1.0 | 0.00 | 0.01 | 0.01 | 49 | 1012.1 |
| 20260830165404 | 83 | 125 | 0.0 | 2.0 | 0.00 | 0.01 | 0.01 | 48 | 1012.2 |
| 20260830164405 | 83 | 125 | 0.0 | 1.0 | 0.00 | 0.01 | 0.01 | 47 | 1012.2 |
| 20260830163904 | 83 | 125 | 1.0 | 3.0 | 0.00 | 0.01 | 0.01 | 46 | 1012.2 |
| 20260830163404 | 84 | 125 | 1.0 | 3.0 | 0.00 | 0.01 | 0.01 | 45 | 1012.2 |
| 20260830162905 | 84 | 140 | 0.0 | 3.0 | 0.00 | 0.01 | 0.01 | 45 | 1012.2 |
| 20260830162405 | 84 | 126 | 1.0 | 3.0 | 0.00 | 0.01 | 0.01 | 44 | 1012.3 |
| 20260830161904 | 84 | 153 | 1.0 | 5.0 | 0.00 | 0.01 | 0.01 | 44 | 1012.3 |
| 20260830161404 | 85 | 153 | 2.0 | 6.0 | 0.00 | 0.01 | 0.01 | 44 | 1012.3 |
| 20260830160905 | 85 | 125 | 2.0 | 6.0 | 0.00 | 0.01 | 0.01 | 43 | 1012.3 |
| 20260830155904 | 85 | 143 | 1.0 | 3.0 | 0.00 | 0.01 | 0.01 | 43 | 1012.4 |
| 20260830155404 | 85 | 215 | 0.0 | 7.0 | 0.00 | 0.01 | 0.01 | 44 | 1012.4 |
| 20260830154904 | 85 | 214 | 3.0 | 6.0 | 0.00 | 0.01 | 0.01 | 44 | 1012.4 |
| 20260830154404 | 85 | 188 | 1.0 | 3.0 | 0.00 | 0.01 | 0.01 | 44 | 1012.5 |
| 20260830153904 | 85 | 188 | 2.0 | 6.0 | 0.00 | 0.01 | 0.01 | 43 | 1012.5 |
| 20260830153404 | 85 | 138 | 3.0 | 5.0 | 0.00 | 0.01 | 0.01 | 43 | 1012.5 |
| 20260830152404 | 85 | 96 | 2.0 | 6.0 | 0.00 | 0.01 | 0.01 | 43 | 1012.6 |
| 20260830151904 | 84 | 157 | 0.0 | 3.0 | 0.00 | 0.01 | 0.01 | 45 | 1012.6 |
| 20260830151404 | 84 | 157 | 1.0 | 3.0 | 0.00 | 0.01 | 0.01 | 43 | 1012.6 |
| 20260830150405 | 84 | 207 | 2.0 | 3.0 | 0.00 | 0.01 | 0.01 | 44 | 1012.7 |
| 20260830145904 | 85 | 215 | 2.0 | 6.0 | 0.00 | 0.01 | 0.01 | 44 | 1012.8 |
| 20260830144904 | 85 | 183 | 2.0 | 10.0 | 0.00 | 0.01 | 0.01 | 44 | 1012.8 |
| 20260830144404 | 85 | 214 | 2.0 | 6.0 | 0.00 | 0.02 | 0.01 | 44 | 1012.8 |
| 20260830143905 | 85 | 206 | 3.0 | 9.0 | 0.00 | 0.02 | 0.01 | 43 | 1012.8 |
| 20260830143404 | 85 | 198 | 5.0 | 12.0 | 0.00 | 0.02 | 0.01 | 42 | 1012.8 |
| 20260830142904 | 86 | 194 | 5.0 | 10.0 | 0.00 | 0.02 | 0.01 | 43 | 1012.9 |
| 20260830142404 | 86 | 178 | 3.0 | 7.0 | 0.00 | 0.02 | 0.01 | 43 | 1012.9 |
| 20260830141904 | 86 | 184 | 2.0 | 8.0 | 0.00 | 0.02 | 0.01 | 42 | 1012.9 |
| 20260830141404 | 87 | 204 | 6.0 | 12.0 | 0.00 | 0.02 | 0.01 | 42 | 1012.9 |
| 20260830140904 | 87 | 224 | 6.0 | 9.0 | 0.00 | 0.02 | 0.01 | 42 | 1013.0 |
| 20260830140404 | 87 | 235 | 6.0 | 10.0 | 0.00 | 0.02 | 0.01 | 40 | 1013.0 |
| 20260830135904 | 87 | 216 | 6.0 | 12.0 | 0.00 | 0.02 | 0.01 | 43 | 1013.0 |
| 20260830135404 | 86 | 203 | 2.0 | 6.0 | 0.00 | 0.02 | 0.01 | 43 | 1013.1 |
| 20260830134904 | 86 | 170 | 3.0 | 10.0 | 0.00 | 0.02 | 0.01 | 42 | 1013.1 |
| 20260830134404 | 86 | 242 | 6.0 | 12.0 | 0.00 | 0.02 | 0.01 | 44 | 1013.1 |
| 20260830133904 | 85 | 211 | 4.0 | 8.0 | 0.00 | 0.02 | 0.01 | 44 | 1013.2 |
| 20260830133404 | 85 | 184 | 1.0 | 5.0 | 0.00 | 0.02 | 0.01 | 43 | 1013.2 |